Location: St. Louis
(38.6270°N, 90.1994°W)
Time: 01:44:41
(UTC-06:00)

Courier 1B Rocket - Pass Details

Date: 05 December 2021
Orbit: 920 x 1202 km, 28.2° (Epoch: 16 January)

Event Time Altitude Azimuth Distance (km) Brightness Sun altitude
Rises 03:08:31 0° 258° (WSW) 3,547 - -45.2°
Reaches altitude 10° 03:12:17 10° 236° (SW) 2,607 - -44.5°
Maximum altitude 03:15:40 15° 202° (SSW) 2,269 - -43.8°
Drops below altitude 10° 03:19:07 10° 169° (S) 2,646 - -43.1°
Exits shadow 03:21:25 - 154° (SSE) 3,185 7.9 -42.7°
Sets 03:23:00 0° 147° (SSE) 3,632 8.3 -42.4°
